SCP
1 1 1 1 1 0 0 0 0 0 0 0 0 0 0 0 0 0 0 0 0 0 0 0 0 0 0 0 0 0 0 0 0 0 0 0 0 0
1 1 1 1 1 1 1 1 0 0 0 0 0 0 0 0 0 0 0 0 0 0 0 0 0 0 0 0 0 0 0 0 0 0 0 0 0 0
1 1 1 0 0 1 1 1 1 1 0 0 0 0 0 0 0 0 0 0 0 0 0 0 0 0 0 0 0 0 0 0 0 0 0 0 0 0
1 1 0 0 0 1 1 1 1 1 1 0 0 0 0 0 0 0 0 0 0 0 0 0 0 0 0 0 0 0 0 0 0 0 0 0 0 0
0 0 0 0 0 0 1 1 1 1 1 0 0 0 0 0 0 0 0 0 0 0 0 0 0 0 0 0 0 0 0 0 0 0 0 0 0 0
0 0 0 0 0 0 0 1 1 1 1 0 0 0 0 0 0 0 0 0 0 0 0 0 0 0 0 0 0 0 0 0 0 0 0 0 0 0
0 0 0 0 0 0 0 0 1 1 0 0 0 0 0 0 0 0 0 0 0 0 0 0 0 0 0 0 0 0 0 0 0 0 0 0 0 0
0 0 0 0 0 0 0 0 0 0 0 0 0 0 0 0 0 0 0 0 0 0 0 0 0 0 0 0 0 0 0 0 0 0 0 0 0 0
0 0 0 0 0 0 0 0 0 0 0 0 0 0 0 0 0 0 0 0 0 0 0 0 0 0 0 0 0 0 0 0 0 0 0 0 0 0
0 0 0 0 0 0 0 0 0 0 0 0 0 0 0 0 0 0 0 0 0 0 0 0 0 0 0 0 0 0 0 0 0 0 0 0 0 0
0 0 0 0 0 0 0 0 0 0 0 0 0 0 0 0 0 0 0 0 0 0 0 0 0 0 0 0 0 0 0 0 0 0 0 0 0 0
0 0 0 0 0 0 0 0 0 0 0 0 0 0 0 0 0 0 0 0 0 0 0 0 0 0 0 0 0 0 0 0 0 0 0 0 0 0
0 0 0 0 0 0 0 0 0 0 0 0 0 0 0 0 0 0 0 0 0 0 0 0 0 0 0 0 0 0 0 0 0 0 0 0 0 0
0 0 0 0 0 0 0 0 0 0 0 0 0 0 0 0 0 0 0 0 0 0 0 0 0 0 0 0 0 0 0 0 0 0 0 0 0 0
0 0 0 0 0 0 0 0 0 0 0 0 0 0 0 0 0 0 0 0 0 0 0 0 0 0 0 0 0 0 0 0 0 0 0 0 0 0
0 0 0 0 0 0 0 0 0 0 0 0 0 0 0 0 0 0 0 0 0 0 0 0 0 0 0 0 0 0 0 0 0 0 0 0 0 0
0 0 0 0 0 0 0 0 0 0 0 0 0 0 0 0 0 0 0 0 0 0 0 0 0 0 0 0 0 0 0 0 0 0 0 0 0 0
0 0 0 0 0 0 0 0 0 0 0 0 0 0 0 0 0 0 0 0 0 0 0 0 0 0 0 0 0 0 0 0 0 0 0 0 0 0
0 0 0 0 0 0 0 0 0 0 0 0 0 0 0 0 0 0 0 0 0 0 0 0 0 0 0 0 0 0 0 0 0 0 0 0 0 0
0 0 0 0 0 0 0 0 0 0 0 0 0 0 0 0 0 0 0 0 0 0 0 0 0 0 0 0 0 0 0 0 0 0 0 0 0 0
0 0 0 0 0 0 0 0 0 0 0 0 0 0 0 0 0 0 0 0 0 0 0 0 0 0 0 0 0 0 0 0 0 0 0 0 0 0
0 0 0 0 0 0 0 0 0 0 0 0 0 0 0 0 0 0 0 0 0 0 0 0 0 0 0 0 0 0 0 0 0 0 0 0 0 0
0 0 0 0 0 0 0 0 0 0 0 0 0 0 0 0 0 0 0 0 0 0 0 0 0 0 0 0 0 0 0 0 0 0 0 0 0 0
Wind_Speed
11 11 8 6 6 5 5 6 7 5 5 4 3 4 4 4 6 4 4 5 5 4 3 3 3 4 4 5 6 7 8 9 10 11 13 14 15 16
9 11 9 7 6 5 6 5 5 5 4 4 3 3 4 4 6 4 4 5 4 4 3 3 3 3 4 4 5 6 7 8 10 11 13 14 15 15
11 12 11 9 8 6 6 6 5 4 4 2 2 2 4 4 4 3 3 2 2 3 3 2 2 3 3 3 5 6 7 8 10 11 12 14 14 15
13 13 12 10 10 8 7 7 6 5 5 5 3 2 3 4 4 4 2 2 1 2 2 2 3 3 2 3 4 5 6 8 9 10 12 13 14 15
14 14 13 13 11 8 8 7 6 5 4 5 4 2 2 2 3 2 2 1 1 1 2 2 2 2 2 3 3 4 6 7 8 10 11 12 13 15
13 13 14 14 13 12 9 9 7 6 5 5 4 3 3 2 3 2 1 1 0 0 1 1 1 1 2 2 3 4 6 7 8 10 11 11 13 14
12 12 12 13 14 12 9 9 9 7 6 6 5 4 3 3 3 3 2 1 0 0 0 1 0 0 1 2 3 4 5 7 8 9 11 11 12 13
13 11 11 13 14 14 13 13 13 11 9 7 5 6 5 4 3 3 3 2 1 1 1 1 0 1 1 1 3 5 5 6 8 9 10 11 12 13
12 11 9 10 13 11 11 12 10 11 12 9 8 7 6 6 7 4 3 3 2 2 1 1 0 1 1 2 4 4 5 6 8 9 10 11 12 13
11 12 12 12 12 12 11 9 7 6 7 6 7 7 6 7 7 6 5 3 2 1 1 1 1 1 1 2 4 3 5 7 8 9 10 11 12 13
9 10 12 12 16 17 13 12 9 6 7 10 10 9 10 10 9 6 5 3 1 1 1 1 0 1 1 2 3 5 6 7 8 9 10 12 12 12
7 8 12 14 18 19 13 13 12 9 8 8 8 8 7 7 8 5 5 4 2 2 1 1 1 0 2 2 2 2 3 6 8 9 11 12 12 7
7 7 8 16 18 17 13 10 13 12 9 9 7 6 5 4 3 3 3 3 3 2 2 2 1 1 0 2 2 2 2 3 4 5 9 12 13 9
6 6 8 17 17 16 12 14 18 14 8 8 6 5 4 3 3 3 4 3 3 3 4 3 2 2 1 0 2 3 3 2 2 3 4 9 9 11
5 10 14 18 16 12 15 18 15 9 8 7 6 5 4 4 4 4 4 5 5 4 2 1 2 2 2 1 1 2 2 3 3 3 4 5 4 5
7 12 16 16 12 12 13 11 7 7 8 7 6 5 4 4 4 3 3 3 3 2 3 3 1 2 1 1 1 2 2 2 3 4 5 4 4 3
7 7 7 8 7 7 7 7 6 6 6 6 6 6 5 4 3 3 3 2 2 2 1 2 3 2 1 2 0 1 2 2 3 4 4 4 4 4
9 7 7 7 7 8 8 7 6 6 6 6 6 6 6 5 4 3 3 3 3 2 1 1 1 2 2 2 0 1 2 2 3 3 3 3 5 4
7 7 7 7 7 7 7 7 6 6 6 6 6 5 5 5 5 4 4 3 3 2 1 1 1 2 2 2 3 2 1 2 3 3 3 2 4 5
6 7 7 7 7 7 7 7 7 6 6 6 6 5 5 5 5 5 4 4 3 2 2 1 1 1 1 1 1 3 3 2 2 3 3 3 3 6
5 6 6 7 7 7 7 7 7 7 6 6 6 5 5 5 5 5 4 6 4 3 3 1 0 2 2 2 2 2 3 4 3 1 2 3 3 4
5 6 6 6 7 7 7 7 7 7 7 6 5 5 5 5 6 6 5 5 3 3 3 2 1 2 2 2 2 1 3 4 5 5 4 3 2 3
5 6 6 6 6 7 7 7 8 6 6 6 6 5 5 5 5 5 5 5 5 5 4 3 2 3 2 2 2 1 2 4 4 4 4 7 7 6
Wind_Direction
197 194 190 187 179 176 166 162 158 174 209 210 196 190 182 175 180 179 182 202 213 220 225 243 266 280 290 301 309 313 316 318 318 317 316 317 317 319
195 193 192 183 177 175 175 171 163 162 190 198 191 170 169 169 176 168 175 185 202 209 216 239 261 273 287 300 307 312 315 316 317 317 317 318 319 320
197 194 191 178 178 179 177 170 168 158 172 181 153 141 154 157 151 149 151 158 191 207 218 229 245 263 285 299 304 309 313 315 318 319 319 320 320 321
196 190 188 180 181 179 181 179 176 171 166 173 161 148 145 155 147 150 146 148 173 204 213 227 245 261 282 292 300 310 315 317 320 321 321 321 322 323
194 189 187 180 182 181 182 182 176 172 165 157 154 137 122 129 131 127 123 125 171 198 222 232 242 262 283 286 297 311 315 317 320 322 323 324 324 324
192 189 187 184 184 180 185 183 172 166 156 149 143 139 132 129 133 142 155 166 184 54 267 244 244 313 300 291 304 311 315 319 322 325 326 327 328 325
188 188 187 183 181 179 182 178 168 165 159 154 152 147 154 154 169 156 168 158 202 117 275 262 249 306 307 302 305 306 316 322 326 328 329 330 330 328
184 184 179 173 172 172 172 168 167 169 168 163 164 169 174 168 148 147 142 142 225 190 171 266 143 250 268 265 297 312 320 327 332 334 333 332 331 330
181 177 174 170 168 168 164 159 161 162 163 164 165 173 165 170 157 152 162 164 185 174 144 242 265 261 276 300 312 317 328 335 337 336 335 334 334 333
177 174 170 168 170 164 156 154 152 156 160 155 158 160 156 157 159 157 152 125 89 90 125 189 274 274 309 314 326 338 343 341 339 338 339 340 340 338
167 169 166 167 164 157 155 151 142 135 122 125 124 125 129 135 136 125 128 124 140 196 144 138 248 309 304 300 328 344 343 341 342 343 345 344 344 344
156 159 162 161 161 160 160 155 153 153 138 123 112 107 111 123 128 140 151 144 142 182 182 140 130 35 318 305 317 335 344 342 346 346 347 347 347 347
159 160 161 158 159 160 160 161 156 145 139 132 123 114 108 109 107 102 116 141 147 166 163 139 140 142 169 297 313 322 335 329 334 338 346 347 348 350
158 156 153 153 153 152 152 146 139 135 133 132 131 134 135 130 118 102 91 82 91 133 154 147 148 162 147 280 294 319 325 322 330 332 332 339 344 346
142 140 142 145 142 142 140 140 139 139 139 139 144 146 138 135 124 104 85 81 70 65 89 114 138 151 154 185 257 302 317 319 336 335 330 332 329 333
126 128 128 128 125 127 132 134 134 141 142 141 139 132 126 125 123 118 115 109 88 57 38 49 87 140 145 203 214 270 291 303 320 328 328 326 326 331
127 127 127 129 127 128 126 125 125 126 124 129 134 134 133 126 121 118 113 114 110 116 57 21 29 52 139 162 160 292 309 314 311 326 334 331 327 334
128 135 137 138 139 138 137 134 129 130 132 131 134 139 142 140 133 121 113 117 118 116 116 62 25 32 33 32 196 278 330 320 325 332 333 330 329 334
129 136 140 141 138 137 137 136 134 133 131 131 132 136 137 136 134 131 126 115 110 112 108 93 59 75 63 356 336 355 336 323 332 337 336 325 316 321
134 139 140 138 137 137 135 132 127 128 127 128 130 133 137 137 135 135 136 131 126 114 100 78 72 83 144 183 279 323 335 327 331 334 331 322 308 313
131 132 135 137 136 134 132 131 130 129 130 131 131 133 137 135 132 133 134 130 119 117 119 110 347 45 88 87 65 348 330 339 340 321 328 336 338 348
129 131 132 134 134 133 133 132 129 129 129 125 130 132 132 130 131 133 135 133 124 120 117 100 71 62 60 80 75 4 341 345 357 9 13 20 6 357
131 129 129 132 133 133 135 134 132 132 133 130 128 130 130 125 123 125 126 123 121 117 109 97 64 52 54 73 79 44 12 359 359 10 10 10 14 8